When you browse on this site, cookies collect data to enhance your experience and personalize the content and advertising you see.
Visit our Privacy Policy to learn more. By continuing to use the site, you agree to this use of cookies and data.
  • In Hungary
  • List of Countries
  • For 7 days
  • Water Temperature
  • Weather Map
  • News
  • Weather Widgets
  • user-avatar
    Login

    Hourly Weather Semykino

    Today, 16 October, Wednesday

    Time Temperature Precipitation Wind Pressure Humidity
    00:00 +3°C° 0 mm 4 mps 732 mmHg 86%
    01:00 +3°C° 0 mm 4 mps 733 mmHg 88%
    02:00 +1°C° 0 mm 4 mps 733 mmHg 86%
    03:00 0°C° 0 mm 5 mps 733 mmHg 84%
    04:00 0°C° 0 mm 4 mps 734 mmHg 83%
    05:00 0°C° 0 mm 5 mps 734 mmHg 84%
    06:00 0°C° 0 mm 5 mps 735 mmHg 86%
    07:00 0°C° 0 mm 5 mps 735 mmHg 87%
    08:00 0°C° 0 mm 5 mps 736 mmHg 84%
    09:00 +1°C° 0 mm 6 mps 737 mmHg 81%
    10:00 +1°C° 0 mm 6 mps 737 mmHg 78%
    11:00 +2°C° 0 mm 6 mps 738 mmHg 74%
    12:00 +2°C° 0 mm 6 mps 738 mmHg 71%
    13:00 +3°C° 0 mm 6 mps 739 mmHg 67%
    14:00 +2°C° 0 mm 6 mps 739 mmHg 68%
    15:00 +2°C° 0 mm 6 mps 740 mmHg 70%
    16:00 +2°C° 0 mm 6 mps 740 mmHg 71%
    17:00 +1°C° 0 mm 5 mps 741 mmHg 72%
    18:00 +1°C° 0 mm 4 mps 741 mmHg 73%
    19:00 0°C° 0 mm 4 mps 741 mmHg 74%
    20:00 +1°C° 0 mm 3 mps 741 mmHg 76%
    21:00 +1°C° 0 mm 3 mps 742 mmHg 78%
    22:00 +2°C° 0 mm 2 mps 742 mmHg 79%
    23:00 +1°C° 0 mm 2 mps 742 mmHg 82%

    Tomorrow, 17 October, Thursday

    Time Temperature Precipitation Wind Pressure Humidity
    00:00 +1°C° 0 mm 2 mps 742 mmHg 85%
    01:00 -1°C° 0 mm 2 mps 742 mmHg 88%
    02:00 +1°C° 0 mm 1 mps 742 mmHg 89%
    03:00 +1°C° 0 mm 1 mps 743 mmHg 90%
    04:00 0°C° 0 mm 1 mps 743 mmHg 91%
    05:00 +1°C° 0 mm 1 mps 743 mmHg 91%
    06:00 +1°C° 0 mm 1 mps 743 mmHg 91%
    07:00 +1°C° 0 mm 1 mps 743 mmHg 90%
    08:00 -1°C° 0 mm 2 mps 743 mmHg 87%
    09:00 0°C° 0 mm 3 mps 743 mmHg 83%
    10:00 0°C° 0 mm 4 mps 742 mmHg 79%
    11:00 0°C° 0.1 mm 4 mps 742 mmHg 81%
    12:00 0°C° 0.1 mm 5 mps 742 mmHg 84%
    13:00 0°C° 0.1 mm 5 mps 741 mmHg 86%
    14:00 +1°C° 0 mm 5 mps 741 mmHg 83%
    15:00 +1°C° 0 mm 6 mps 740 mmHg 79%
    16:00 +2°C° 0 mm 6 mps 740 mmHg 76%
    17:00 +2°C° 0 mm 6 mps 739 mmHg 75%
    18:00 +2°C° 0 mm 7 mps 739 mmHg 74%
    19:00 +2°C° 0 mm 7 mps 738 mmHg 73%
    20:00 +2°C° 0 mm 7 mps 738 mmHg 72%
    21:00 +2°C° 0 mm 7 mps 738 mmHg 72%
    22:00 +2°C° 0 mm 6 mps 737 mmHg 72%
    23:00 +2°C° 0 mm 6 mps 737 mmHg 72%

    Day after tomorrow, 18 October, Friday

    Time Temperature Precipitation Wind Pressure Humidity
    00:00 +2°C° 0 mm 7 mps 737 mmHg 73%
    01:00 +2°C° 0 mm 7 mps 736 mmHg 73%
    02:00 +1°C° 0 mm 6 mps 736 mmHg 73%
    03:00 +1°C° 0 mm 6 mps 736 mmHg 74%
    04:00 +1°C° 0 mm 6 mps 736 mmHg 74%
    05:00 +1°C° 0 mm 5 mps 735 mmHg 75%
    06:00 +1°C° 0 mm 5 mps 735 mmHg 75%
    07:00 +1°C° 0 mm 5 mps 734 mmHg 76%
    08:00 +1°C° 0 mm 5 mps 734 mmHg 74%
    09:00 +2°C° 0 mm 6 mps 734 mmHg 72%
    10:00 +3°C° 0 mm 6 mps 734 mmHg 70%
    11:00 +4°C° 0 mm 6 mps 733 mmHg 70%
    12:00 +5°C° 0 mm 6 mps 733 mmHg 69%
    13:00 +7°C° 0 mm 6 mps 733 mmHg 68%
    14:00 +7°C° 0 mm 5 mps 732 mmHg 71%
    15:00 +7°C° 0 mm 5 mps 732 mmHg 73%
    16:00 +7°C° 0 mm 4 mps 732 mmHg 75%
    17:00 +7°C° 0.3 mm 4 mps 732 mmHg 80%
    18:00 +8°C° 0.3 mm 3 mps 732 mmHg 85%
    19:00 +7°C° 0.3 mm 2 mps 731 mmHg 89%
    20:00 +7°C° 0.5 mm 2 mps 732 mmHg 92%
    21:00 +7°C° 0.5 mm 2 mps 732 mmHg 95%
    22:00 +7°C° 0.5 mm 2 mps 732 mmHg 97%
    23:00 +5°C° 0 mm 3 mps 732 mmHg 96%

    19 October, Saturday

    Time Temperature Precipitation Wind Pressure Humidity
    00:00 +5°C° 0 mm 3 mps 733 mmHg 95%
    01:00 +4°C° 0 mm 4 mps 733 mmHg 94%
    02:00 +4°C° 0 mm 4 mps 733 mmHg 93%
    03:00 +4°C° 0 mm 4 mps 734 mmHg 93%
    04:00 +3°C° 0 mm 4 mps 734 mmHg 92%
    05:00 +3°C° 0 mm 4 mps 734 mmHg 92%
    06:00 +3°C° 0 mm 4 mps 735 mmHg 91%
    07:00 +1°C° 0 mm 4 mps 735 mmHg 90%
    08:00 +1°C° 0 mm 4 mps 736 mmHg 89%
    09:00 +1°C° 0 mm 4 mps 736 mmHg 87%
    10:00 +3°C° 0 mm 4 mps 737 mmHg 85%
    11:00 +3°C° 0 mm 4 mps 737 mmHg 82%
    12:00 +3°C° 0 mm 4 mps 738 mmHg 78%
    13:00 +4°C° 0 mm 4 mps 738 mmHg 74%
    14:00 +4°C° 0 mm 4 mps 738 mmHg 74%
    15:00 +4°C° 0 mm 4 mps 738 mmHg 74%
    16:00 +3°C° 0 mm 4 mps 739 mmHg 74%
    17:00 +3°C° 0 mm 3 mps 739 mmHg 78%
    18:00 +3°C° 0 mm 3 mps 739 mmHg 81%
    19:00 +3°C° 0 mm 2 mps 740 mmHg 85%
    20:00 +3°C° 0 mm 2 mps 740 mmHg 85%
    21:00 +4°C° 0 mm 2 mps 740 mmHg 86%
    22:00 +4°C° 0 mm 2 mps 741 mmHg 86%
    23:00 +3°C° 0 mm 3 mps 741 mmHg 86%

    20 October, Sunday

    Time Temperature Precipitation Wind Pressure Humidity
    00:00 +3°C° 0 mm 3 mps 741 mmHg 86%
    01:00 +3°C° 0 mm 3 mps 741 mmHg 86%
    02:00 +3°C° 0 mm 3 mps 741 mmHg 85%
    03:00 +3°C° 0 mm 3 mps 742 mmHg 84%
    04:00 +3°C° 0 mm 3 mps 742 mmHg 83%
    05:00 +1°C° 0 mm 4 mps 742 mmHg 83%
    06:00 +1°C° 0 mm 4 mps 742 mmHg 83%
    07:00 +1°C° 0 mm 4 mps 742 mmHg 83%
    08:00 +3°C° 0 mm 4 mps 742 mmHg 81%
    09:00 +3°C° 0 mm 4 mps 743 mmHg 80%
    10:00 +3°C° 0 mm 4 mps 743 mmHg 79%
    11:00 +4°C° 0 mm 4 mps 743 mmHg 78%
    12:00 +4°C° 0 mm 4 mps 743 mmHg 76%
    13:00 +4°C° 0 mm 4 mps 743 mmHg 75%
    14:00 +4°C° 0 mm 4 mps 743 mmHg 75%
    15:00 +4°C° 0 mm 4 mps 743 mmHg 75%
    16:00 +5°C° 0 mm 4 mps 742 mmHg 75%
    17:00 +4°C° 0 mm 4 mps 742 mmHg 79%
    18:00 +3°C° 0 mm 3 mps 742 mmHg 82%
    19:00 +2°C° 0 mm 3 mps 742 mmHg 86%
    20:00 +2°C° 0 mm 3 mps 742 mmHg 87%
    21:00 +2°C° 0 mm 3 mps 742 mmHg 87%
    22:00 +2°C° 0 mm 3 mps 742 mmHg 88%
    23:00 +2°C° 0 mm 3 mps 742 mmHg 88%

    21 October, Monday

    Time Temperature Precipitation Wind Pressure Humidity
    00:00 +1°C° 0 mm 4 mps 741 mmHg 88%
    01:00 +1°C° 0 mm 4 mps 741 mmHg 89%
    02:00 +1°C° 0 mm 4 mps 741 mmHg 88%
    03:00 +2°C° 0 mm 5 mps 741 mmHg 88%
    04:00 +2°C° 0 mm 5 mps 741 mmHg 88%
    05:00 +2°C° 0.3 mm 5 mps 741 mmHg 89%
    06:00 +2°C° 0.3 mm 5 mps 740 mmHg 90%
    07:00 +3°C° 0.3 mm 5 mps 740 mmHg 92%
    08:00 +4°C° 0.3 mm 4 mps 740 mmHg 93%
    09:00 +4°C° 0.3 mm 4 mps 740 mmHg 95%
    10:00 +5°C° 0.3 mm 3 mps 740 mmHg 96%
    11:00 +5°C° 0 mm 3 mps 741 mmHg 95%
    12:00 +7°C° 0 mm 3 mps 741 mmHg 94%
    13:00 +8°C° 0 mm 2 mps 741 mmHg 93%
    14:00 +8°C° 0 mm 2 mps 741 mmHg 93%
    15:00 +8°C° 0 mm 2 mps 741 mmHg 94%
    16:00 +9°C° 0 mm 1 mps 740 mmHg 95%
    17:00 +9°C° 0 mm 1 mps 740 mmHg 96%
    18:00 +8°C° 0 mm 2 mps 740 mmHg 97%
    19:00 +7°C° 0 mm 2 mps 740 mmHg 98%
    20:00 +7°C° 0 mm 2 mps 739 mmHg 97%
    21:00 +8°C° 0 mm 3 mps 739 mmHg 97%
    22:00 +8°C° 0 mm 3 mps 739 mmHg 97%
    23:00 +7°C° 0 mm 4 mps 738 mmHg 96%
    Show more